[[{"header":{"parameterUnit":"m.s-1","parameterCategory":1,"la1":30.2991,"la2":30.254,"lo1":-89.0895,"lo2":-89.0444,"dx":0.0017,"dy":0.0017,"nx":28,"ny":28,"refTime":"2022-12-05T15:00:00:Z","depth":0,"parameterNumber":2,"parameterNumberName":"U-component_of_WINDS"},"data":[0,0,0,0,0,0,0,0,0,0,0,0,0,0,0,0,0,0,0,0,0,0,0,0,0,0,0,0,0,0,0,0,0,0,0,0,0,0,0,0,0,0,0,0,0,0,0,0,0,0,0,0,0,0,0,0,0,0,0.7128,0.7129,0,0.7176,0.7177,0.7177,0.7146,0.7145,0.7144,0.7142,0.7192,0.7195,0.7197,0,0,0,0,0,0,0,0,0,0,0,0,0,0.7012,0.7014,0.7128,0.7129,0.7129,0.7176,0.7177,0.7177,0.7147,0.7145,0.7143,0.7142,0.7191,0.7194,0.7198,0,0,0,0,0,0,0,0,0,0,0,0,0,0.7061,0.7015,0.7128,0.712,0.7119,0.7176,0.7177,0.7177,0.7147,0.7145,0.7143,0.7141,0.719,0.7194,0.7198,0.7266,0,0,0.721,0.7212,0,0,0,0,0,0,0,0,0.7059,0.7066,0.712,0.712,0.712,0.7153,0.7154,0.7207,0.7148,0.7137,0.7142,0.714,0.7181,0.7186,0.7199,0.7268,0.727,0.7211,0.7213,0.7215,0.7216,0,0,0,0,0,0,0,0.7055,0.7063,0.7147,0.7121,0.7121,0.7114,0.7119,0.7164,0.717,0.7137,0.7135,0.7141,0.718,0.7195,0.72,0.7271,0.721,0.7214,0.7216,0.7218,0.7398,0.74,0,0,0,0,0,0,0.7052,0.7061,0.7146,0.7148,0.7083,0.7118,0.7123,0.7145,0.717,0.7171,0.7143,0.714,0.719,0.7196,0.7202,0.7283,0.7215,0.7218,0.7221,0.7396,0.7399,0.7401,0,0,0,0,0,0,0.705,0.706,0.7144,0.7104,0.7114,0.7122,0.7147,0.7147,0.7162,0.7174,0.7175,0.7157,0.7188,0.7196,0.725,0.7284,0.722,0.7224,0.7393,0.7397,0.74,0.7445,0,0,0,0,0,0,0.7047,0.7059,0.7085,0.7105,0.7116,0.7191,0.7149,0.7149,0.7168,0.7164,0.7187,0.7189,0.7187,0.7244,0.7254,0.7288,0.7227,0.739,0.7395,0.7399,0.744,0.7449,0.7457,0,0,0,0,0,0.7043,0.7095,0.7086,0.7096,0.7148,0.7193,0.7199,0.7196,0.7171,0.7197,0.7205,0.7188,0.7279,0.725,0.7261,0.7297,0.7388,0.7393,0.7398,0.7436,0.7448,0.7457,0,0,0,0,0,0,0.7079,0.7098,0.7088,0.7148,0.7169,0.7187,0.7219,0.7207,0.7236,0.7231,0.7225,0.7231,0.7287,0.7298,0.7265,0.7364,0.733,0.7337,0.7355,0.7366,0.7374,0.737,0.723,0,0,0,0,0,0.7094,0.7128,0.7143,0.7195,0.7206,0.7211,0.7231,0.7226,0.7247,0.7256,0.7268,0.729,0.7323,0.7345,0.7376,0.7442,0.7447,0.7472,0.7481,0.7488,0.7494,0.753,0.7542,0.7419,0.7419,0.7419,0,0,0.7125,0.714,0.7162,0.7203,0.7218,0.7254,0.7219,0.7258,0.7285,0.7262,0.7313,0.7323,0.7347,0.7407,0.7435,0.7418,0.753,0.7495,0.75,0.7503,0.7537,0.7549,0.7559,0.7422,0.7422,0.7421,0,0,0.7201,0.7215,0.726,0.7277,0.7301,0.7304,0.7315,0.7336,0.7341,0.7393,0.7377,0.7409,0.7466,0.7484,0.7501,0.7585,0.7571,0.7595,0.7639,0.7675,0.7684,0.7693,0.7723,0.7734,0.7602,0.7602,0.7602,0,0.7236,0.729,0.7285,0.7326,0.7345,0.7326,0.7373,0.7389,0.7422,0.7436,0.7417,0.7489,0.7504,0.7568,0.7589,0.7603,0.7616,0.7592,0.7683,0.7692,0.77,0.7728,0.774,0.7605,0.7605,0.7604,0.7604,0,0.7333,0.737,0.7404,0.7436,0.7459,0.7502,0.7505,0.7529,0.7523,0.7529,0.7582,0.76,0.7635,0.765,0.7644,0.7714,0.7703,0.7684,0.7649,0.7714,0.7741,0.7752,0.7609,0.7608,0.7607,0.7606,0,0,0.743,0.7461,0.7473,0.7488,0.7514,0.7543,0.7587,0.7621,0.7641,0.7665,0.7701,0.7751,0.7734,0.7753,0.775,0.7781,0.7847,0.7758,0.7759,0.7774,0.7925,0.7938,0.7951,0.7838,0.784,0.7842,0.7923,0,0.7507,0.7581,0.758,0.7649,0.7684,0.7668,0.7705,0.7726,0.7733,0.7764,0.7772,0.7807,0.7782,0.7793,0.7823,0.7832,0.7877,0.7827,0.7872,0.7873,0.7865,0.7965,0.7979,0.8055,0.7933,0.7935,0.7936,0,0.7605,0.7633,0.7706,0.7728,0.7742,0.7776,0.7808,0.7838,0.7861,0.7864,0.7886,0.7878,0.7923,0.7888,0.7949,0.7915,0.7934,0.7942,0.7944,0.7948,0.7908,0.7971,0.8079,0.809,0.7953,0.7951,0.795,0,0.7669,0.7724,0.7775,0.7789,0.7816,0.784,0.7852,0.7874,0.7895,0.7923,0.7936,0.7969,0.7987,0.8013,0.8015,0.799,0.8078,0.8043,0.8081,0.8082,0.81,0.8098,0.8212,0.8113,0.8113,0.8113,0.8113,0,0.7754,0.7799,0.7804,0.7836,0.7886,0.7885,0.7935,0.7945,0.7965,0.7998,0.7987,0.8019,0.8019,0.8052,0.8054,0.8105,0.8114,0.8117,0.8117,0.8118,0.8117,0.8129,0.8124,0.8116,0.8115,0.8115,0.8114,0,0.7832,0.7838,0.7892,0.7914,0.792,0.7957,0.7975,0.8006,0.8012,0.8055,0.8065,0.8075,0.8113,0.8118,0.8163,0.8164,0.8225,0.822,0.8217,0.8216,0.8255,0.8251,0.8379,0.8396,0.8287,0.8288,0.8289,0,0.7885,0.792,0.7945,0.7967,0.7981,0.8016,0.8038,0.8038,0.8061,0.8091,0.8118,0.8155,0.8185,0.8247,0.8259,0.8293,0.8288,0.8331,0.8293,0.8293,0.8288,0.8286,0.8289,0.8338,0.8339,0.834,0.8341,0,0.7979,0.7981,0.8012,0.8045,0.8071,0.8097,0.8121,0.814,0.8144,0.8171,0.8209,0.8233,0.8279,0.8316,0.835,0.8363,0.8353,0.8353,0.8363,0.8364,0.8361,0.8363,0.8236,0.8349,0.8348,0.8348,0.8347,0.8347,0.8046,0.8076,0.8099,0.8135,0.8154,0.8177,0.8207,0.8218,0.825,0.8288,0.8286,0.833,0.8354,0.8399,0.8415,0.8449,0.8435,0.845,0.8454,0.8458,0.8462,0.8356,0.8455,0.8455,0.8455,0.8454,0.8454,0,0.8139,0.8153,0.8186,0.8221,0.825,0.8238,0.8265,0.829,0.8328,0.8351,0.8381,0.8426,0.8463,0.8478,0.8514,0.8539,0.8535,0.8548,0.8546,0.8549,0.8472,0.8459,0.8551,0.8551,0.8551,0.8551,0.8551,0.8551,0.819,0.8241,0.8245,0.8306,0.832,0.8362,0.8379,0.8401,0.8419,0.8471,0.8501,0.8511,0.8532,0.8569,0.8603,0.8606,0.862,0.8635,0.8637,0.8564,0.8554,0.8545,0.8533,0.8638,0.8639,0.8711,0.8712,0.8712]},{"header":{"parameterUnit":"m.s-1","parameterCategory":1,"la1":30.2991,"la2":30.254,"lo1":-89.0895,"lo2":-89.0444,"dx":0.0017,"dy":0.0017,"nx":28,"ny":28,"refTime":"2022-12-05T15:00:00:Z","depth":0,"parameterNumber":3,"parameterNumberName":"V-component_of_WINDS"},"data":[0,0,0,0,0,0,0,0,0,0,0,0,0,0,0,0,0,0,0,0,0,0,0,0,0,0,0,0,0,0,0,0,0,0,0,0,0,0,0,0,0,0,0,0,0,0,0,0,0,0,0,0,0,0,0,0,0,0,1.4797,1.4796,0,1.468,1.4679,1.4677,1.4612,1.4612,1.4612,1.4612,1.4489,1.4486,1.4482,0,0,0,0,0,0,0,0,0,0,0,0,0,1.4961,1.4959,1.4797,1.4796,1.4794,1.468,1.4678,1.4677,1.4612,1.4612,1.4612,1.4612,1.449,1.4486,1.4482,0,0,0,0,0,0,0,0,0,0,0,0,0,1.4872,1.4958,1.4797,1.4748,1.4743,1.468,1.4678,1.4676,1.4612,1.4612,1.4612,1.4611,1.4491,1.4486,1.4482,1.4458,0,0,1.4467,1.4465,0,0,0,0,0,0,0,0,1.4877,1.4866,1.4757,1.4751,1.4745,1.466,1.4691,1.4603,1.4612,1.4662,1.4612,1.4611,1.4546,1.4537,1.4515,1.4453,1.4447,1.4467,1.4464,1.4462,1.4461,0,0,0,0,0,0,0,1.4883,1.487,1.4751,1.4755,1.4748,1.4731,1.4718,1.4674,1.4607,1.4657,1.4652,1.464,1.4542,1.452,1.4512,1.4445,1.4467,1.4463,1.446,1.4458,1.4357,1.4357,0,0,0,0,0,0,1.4898,1.4876,1.4754,1.4747,1.4812,1.4728,1.4714,1.4688,1.4607,1.4594,1.464,1.4637,1.4528,1.4517,1.4507,1.4474,1.4462,1.4458,1.4455,1.4357,1.4357,1.4357,0,0,0,0,0,0,1.4902,1.4888,1.4759,1.481,1.4792,1.4726,1.4697,1.4686,1.4663,1.4594,1.4581,1.4629,1.4527,1.4514,1.4471,1.4469,1.4456,1.4452,1.4357,1.4357,1.4357,1.4408,0,0,0,0,0,0,1.4907,1.4889,1.488,1.481,1.479,1.4726,1.4697,1.4684,1.4655,1.465,1.458,1.4569,1.4526,1.4478,1.4466,1.4462,1.4448,1.4357,1.4357,1.4357,1.4407,1.441,1.4413,0,0,0,0,0,1.4913,1.4899,1.488,1.4866,1.4778,1.4726,1.4714,1.4666,1.4656,1.4646,1.4601,1.4571,1.4471,1.4475,1.4461,1.4455,1.4357,1.4357,1.4357,1.4405,1.4409,1.4413,0,0,0,0,0,0,1.4969,1.4889,1.4867,1.4831,1.4786,1.4715,1.4701,1.4673,1.4629,1.4626,1.4568,1.4552,1.4515,1.4481,1.4486,1.4428,1.4411,1.4408,1.4452,1.4455,1.4459,1.4468,1.4444,0,0,0,0,0,1.4977,1.4943,1.4874,1.4849,1.4827,1.4768,1.4744,1.4711,1.4662,1.4642,1.4594,1.4547,1.4505,1.4478,1.4436,1.4401,1.4385,1.4391,1.4394,1.4397,1.4396,1.4374,1.4376,1.4358,1.4358,1.4358,0,0,1.4994,1.4946,1.4927,1.4859,1.482,1.4785,1.4753,1.4717,1.469,1.4636,1.4593,1.4557,1.45,1.4461,1.4442,1.4431,1.4397,1.4398,1.4401,1.4397,1.4375,1.4376,1.4378,1.4358,1.4358,1.4358,0,0,1.5006,1.4967,1.4941,1.4903,1.4845,1.4806,1.48,1.4734,1.4708,1.4664,1.4623,1.459,1.4519,1.448,1.445,1.4448,1.4419,1.4436,1.4454,1.4434,1.4435,1.4436,1.4435,1.4435,1.4435,1.4435,1.4435,0,1.5033,1.498,1.4931,1.4897,1.4868,1.4819,1.4792,1.4757,1.4688,1.4669,1.4658,1.4568,1.4526,1.4478,1.4477,1.4456,1.4446,1.4443,1.4439,1.444,1.444,1.4438,1.4438,1.4437,1.4437,1.4437,1.4436,0,1.5016,1.498,1.4966,1.4902,1.4871,1.4841,1.4786,1.476,1.473,1.4692,1.4648,1.4596,1.4542,1.4528,1.4498,1.4475,1.4471,1.4451,1.4432,1.4445,1.4442,1.4441,1.4441,1.444,1.4439,1.4439,0,0,1.506,1.497,1.4966,1.4936,1.4869,1.4839,1.4807,1.4755,1.4734,1.4688,1.4659,1.46,1.4581,1.4548,1.4513,1.4495,1.4497,1.4477,1.4475,1.4482,1.4468,1.4483,1.4483,1.4477,1.4476,1.4476,1.4472,0,1.5062,1.5003,1.4958,1.4915,1.488,1.4834,1.4805,1.476,1.4724,1.4688,1.4647,1.4606,1.4585,1.4564,1.4545,1.4501,1.4493,1.45,1.4448,1.4447,1.4463,1.4482,1.4498,1.4497,1.4471,1.4471,1.4471,0,1.5057,1.5014,1.4968,1.4905,1.4889,1.4864,1.4813,1.478,1.4728,1.4703,1.4666,1.463,1.4593,1.4579,1.4525,1.4532,1.4507,1.4482,1.4481,1.4474,1.4459,1.4475,1.4495,1.4495,1.4468,1.4469,1.4469,0,1.5093,1.5024,1.4988,1.4964,1.4889,1.4873,1.4841,1.4789,1.476,1.4715,1.4696,1.4647,1.462,1.4583,1.4534,1.4528,1.4486,1.4468,1.4463,1.4464,1.4456,1.4457,1.4472,1.4441,1.4441,1.4441,1.4441,0,1.51,1.5074,1.5003,1.4981,1.495,1.4897,1.4868,1.4831,1.4786,1.4754,1.4711,1.4682,1.462,1.4583,1.4545,1.4507,1.4495,1.4473,1.4463,1.4476,1.4479,1.4459,1.4458,1.4441,1.4441,1.4441,1.4441,0,1.5135,1.5087,1.5044,1.4978,1.496,1.494,1.4882,1.4858,1.482,1.4781,1.4769,1.4707,1.4662,1.461,1.4548,1.4522,1.4486,1.4472,1.4504,1.4499,1.4497,1.4498,1.45,1.4497,1.4469,1.4469,1.4469,0,1.5143,1.5122,1.5053,1.503,1.5,1.4963,1.4934,1.4882,1.4853,1.4793,1.4776,1.4728,1.4686,1.4616,1.4566,1.4518,1.4501,1.4505,1.4494,1.4508,1.4501,1.4503,1.45,1.4508,1.4509,1.451,1.451,0,1.5161,1.5139,1.51,1.5053,1.502,1.498,1.4938,1.4921,1.486,1.483,1.4785,1.4753,1.4689,1.4642,1.4588,1.4553,1.4521,1.4514,1.451,1.4524,1.4544,1.4533,1.4513,1.4514,1.4514,1.4513,1.4513,1.4513,1.5182,1.5162,1.511,1.5069,1.5032,1.4994,1.4968,1.4926,1.4888,1.4833,1.4804,1.4759,1.4706,1.463,1.4597,1.456,1.4549,1.4544,1.4542,1.4542,1.4545,1.455,1.4549,1.4549,1.4549,1.4549,1.4549,0,1.5199,1.5164,1.5126,1.5069,1.5036,1.501,1.4962,1.4936,1.4897,1.4852,1.4812,1.4759,1.4713,1.4659,1.4609,1.4589,1.4573,1.4578,1.4579,1.4571,1.4558,1.4566,1.4592,1.4592,1.4592,1.4592,1.4592,1.4592,1.5203,1.5166,1.5138,1.5082,1.5046,1.5003,1.4977,1.4942,1.4905,1.4848,1.481,1.4776,1.4726,1.4673,1.4629,1.4614,1.4597,1.4606,1.4587,1.4576,1.4572,1.4568,1.4576,1.4603,1.4603,1.4603,1.4603,1.4603]}]]